Time,TemperatureF,DewpointF,PressureIn,WindDirection,WindDirectionDegrees,WindSpeedMPH,WindSpeedGustMPH,Humidity,HourlyPrecipIn,Conditions,Clouds,dailyrainin,SolarRadiationWatts/m^2,SoftwareType,DateUTC
2013-10-25 00:03:00,43.3,30.0,30.48,South,175,0.0,0.0,61,0.00,,,0.00,0,weatherlink.com 1.10,2013-10-25 06:03:00,
2013-10-25 00:18:00,44.0,30.0,30.48,South,188,0.0,5.0,59,0.00,,,0.00,0,weatherlink.com 1.10,2013-10-25 06:18:00,
2013-10-25 00:33:00,43.2,31.0,30.48,South,186,0.0,1.0,63,0.00,,,0.00,0,weatherlink.com 1.10,2013-10-25 06:33:00,
2013-10-25 00:48:00,42.7,32.0,30.49,South,186,0.0,0.0,67,0.00,,,0.00,0,weatherlink.com 1.10,2013-10-25 06:48:00,
2013-10-25 01:03:00,41.9,32.0,30.49,South,186,0.0,0.0,68,0.00,,,0.00,0,weatherlink.com 1.10,2013-10-25 07:03:00,
2013-10-25 01:19:00,41.8,32.0,30.50,South,182,0.0,0.0,69,0.00,,,0.00,0,weatherlink.com 1.10,2013-10-25 07:19:00,
2013-10-25 01:34:00,42.1,32.0,30.50,SE,140,2.0,4.0,67,0.00,,,0.00,0,weatherlink.com 1.10,2013-10-25 07:34:00,
2013-10-25 01:49:00,42.4,31.0,30.51,NE,49,4.0,5.0,65,0.00,,,0.00,0,weatherlink.com 1.10,2013-10-25 07:49:00,
2013-10-25 02:04:00,40.5,31.0,30.51,NE,41,4.0,5.0,68,0.00,,,0.00,0,weatherlink.com 1.10,2013-10-25 08:04:00,
2013-10-25 02:19:00,41.3,31.0,30.52,NNE,26,5.0,6.0,67,0.00,,,0.00,0,weatherlink.com 1.10,2013-10-25 08:19:00,
2013-10-25 02:34:00,41.8,32.0,30.52,NNE,26,2.0,6.0,67,0.00,,,0.00,0,weatherlink.com 1.10,2013-10-25 08:34:00,
2013-10-25 02:49:00,41.1,31.0,30.52,NNE,26,0.0,1.0,67,0.00,,,0.00,0,weatherlink.com 1.10,2013-10-25 08:49:00,
2013-10-25 03:04:00,41.3,31.0,30.53,NNE,26,0.0,0.0,67,0.00,,,0.00,0,weatherlink.com 1.10,2013-10-25 09:04:00,
2013-10-25 03:19:00,40.9,31.0,30.53,NNE,26,0.0,0.0,67,0.00,,,0.00,0,weatherlink.com 1.10,2013-10-25 09:19:00,
2013-10-25 03:34:00,40.2,31.0,30.54,NNE,26,0.0,3.0,69,0.00,,,0.00,0,weatherlink.com 1.10,2013-10-25 09:34:00,
2013-10-25 03:49:00,38.9,30.0,30.54,NNE,26,0.0,0.0,71,0.00,,,0.00,0,weatherlink.com 1.10,2013-10-25 09:49:00,
2013-10-25 04:04:00,38.2,31.0,30.54,SSE,157,0.0,3.0,74,0.00,,,0.00,0,weatherlink.com 1.10,2013-10-25 10:04:00,
2013-10-25 04:19:00,36.9,29.0,30.54,SSE,161,0.0,2.0,74,0.00,,,0.00,0,weatherlink.com 1.10,2013-10-25 10:19:00,
2013-10-25 04:34:00,36.4,30.0,30.54,SSE,161,0.0,0.0,77,0.00,,,0.00,0,weatherlink.com 1.10,2013-10-25 10:34:00,
2013-10-25 04:49:00,36.2,30.0,30.55,SSE,158,0.0,0.0,77,0.00,,,0.00,0,weatherlink.com 1.10,2013-10-25 10:49:00,
2013-10-25 05:04:00,36.9,30.0,30.54,SSE,158,0.0,0.0,76,0.00,,,0.00,0,weatherlink.com 1.10,2013-10-25 11:04:00,
2013-10-25 05:19:00,36.1,30.0,30.54,SSE,158,0.0,0.0,77,0.00,,,0.00,0,weatherlink.com 1.10,2013-10-25 11:19:00,
2013-10-25 05:34:00,35.7,30.0,30.55,SSE,158,0.0,0.0,79,0.00,,,0.00,0,weatherlink.com 1.10,2013-10-25 11:34:00,
2013-10-25 05:49:00,34.9,30.0,30.56,SSE,161,0.0,0.0,81,0.00,,,0.00,0,weatherlink.com 1.10,2013-10-25 11:49:00,
2013-10-25 06:04:00,35.1,30.0,30.56,SSE,161,0.0,0.0,80,0.00,,,0.00,0,weatherlink.com 1.10,2013-10-25 12:04:00,
2013-10-25 06:19:00,35.5,29.0,30.57,SSE,151,4.0,4.0,77,0.00,,,0.00,0,weatherlink.com 1.10,2013-10-25 12:19:00,
2013-10-25 06:34:00,33.1,29.0,30.57,SSE,150,0.0,3.0,83,0.00,,,0.00,0,weatherlink.com 1.10,2013-10-25 12:34:00,
2013-10-25 06:49:00,32.4,29.0,30.57,SSE,150,0.0,0.0,86,0.00,,,0.00,0,weatherlink.com 1.10,2013-10-25 12:49:00,
2013-10-25 07:04:00,33.0,29.0,30.57,SSE,150,0.0,0.0,86,0.00,,,0.00,0,weatherlink.com 1.10,2013-10-25 13:04:00,
2013-10-25 07:19:00,34.1,30.0,30.57,SSE,150,0.0,0.0,83,0.00,,,0.00,0,weatherlink.com 1.10,2013-10-25 13:19:00,
2013-10-25 07:34:00,34.7,29.0,30.57,SSE,151,0.0,0.0,81,0.00,,,0.00,0,weatherlink.com 1.10,2013-10-25 13:34:00,
2013-10-25 07:49:00,33.9,29.0,30.58,SSE,150,0.0,0.0,81,0.00,,,0.00,0,weatherlink.com 1.10,2013-10-25 13:49:00,
2013-10-25 08:05:00,33.5,29.0,30.58,SSE,151,0.0,0.0,82,0.00,,,0.00,0,weatherlink.com 1.10,2013-10-25 14:05:00,
2013-10-25 08:20:00,33.8,29.0,30.58,SSE,150,0.0,0.0,83,0.00,,,0.00,7,weatherlink.com 1.10,2013-10-25 14:20:00,
2013-10-25 08:35:00,33.3,29.0,30.59,SSE,151,0.0,0.0,83,0.00,,,0.00,14,weatherlink.com 1.10,2013-10-25 14:35:00,
2013-10-25 08:50:00,32.0,28.0,30.60,SSE,148,4.0,4.0,84,0.00,,,0.00,51,weatherlink.com 1.10,2013-10-25 14:50:00,
2013-10-25 09:05:00,31.5,28.0,30.61,NE,56,5.0,6.0,87,0.00,,,0.00,93,weatherlink.com 1.10,2013-10-25 15:05:00,
2013-10-25 09:20:00,33.1,29.0,30.61,NE,48,5.0,6.0,86,0.00,,,0.00,127,weatherlink.com 1.10,2013-10-25 15:20:00,
2013-10-25 09:35:00,34.4,30.0,30.61,NNE,30,5.0,6.0,84,0.00,,,0.00,171,weatherlink.com 1.10,2013-10-25 15:35:00,
2013-10-25 09:50:00,34.3,30.0,30.62,NNE,17,3.0,6.0,84,0.00,,,0.00,214,weatherlink.com 1.10,2013-10-25 15:50:00,
2013-10-25 10:05:00,34.6,30.0,30.62,NNE,18,3.0,6.0,84,0.00,,,0.00,257,weatherlink.com 1.10,2013-10-25 16:05:00,
2013-10-25 10:20:00,34.9,30.0,30.62,NNE,15,3.0,5.0,83,0.00,,,0.00,288,weatherlink.com 1.10,2013-10-25 16:20:00,
2013-10-25 10:35:00,34.2,30.0,30.62,NNE,17,3.0,5.0,84,0.00,,,0.00,320,weatherlink.com 1.10,2013-10-25 16:35:00,
2013-10-25 10:50:00,36.5,32.0,30.62,NNE,24,0.0,2.0,83,0.00,,,0.00,350,weatherlink.com 1.10,2013-10-25 16:50:00,
2013-10-25 11:05:00,37.9,32.0,30.62,North,355,4.0,4.0,79,0.00,,,0.00,380,weatherlink.com 1.10,2013-10-25 17:05:00,
2013-10-25 11:20:00,38.4,32.0,30.62,West,281,0.0,5.0,79,0.00,,,0.00,406,weatherlink.com 1.10,2013-10-25 17:20:00,
2013-10-25 11:35:00,40.2,34.0,30.62,West,279,0.0,2.0,77,0.00,,,0.00,431,weatherlink.com 1.10,2013-10-25 17:35:00,
2013-10-25 11:50:00,42.4,34.0,30.62,WNW,282,0.0,3.0,73,0.00,,,0.00,454,weatherlink.com 1.10,2013-10-25 17:50:00,
2013-10-25 12:05:00,42.8,33.0,30.61,West,259,0.0,5.0,69,0.00,,,0.00,473,weatherlink.com 1.10,2013-10-25 18:05:00,
2013-10-25 12:21:00,44.0,32.0,30.61,West,259,1.0,5.0,64,0.00,,,0.00,489,weatherlink.com 1.10,2013-10-25 18:21:00,
2013-10-25 12:36:00,45.0,33.0,30.60,WSW,247,4.0,5.0,63,0.00,,,0.00,501,weatherlink.com 1.10,2013-10-25 18:36:00,
2013-10-25 12:51:00,46.6,34.0,30.60,SW,232,1.0,5.0,61,0.00,,,0.00,508,weatherlink.com 1.10,2013-10-25 18:51:00,
2013-10-25 13:06:00,48.3,33.0,30.60,SW,218,4.0,6.0,56,0.00,,,0.00,517,weatherlink.com 1.10,2013-10-25 19:06:00,
2013-10-25 13:21:00,49.8,33.0,30.59,SW,217,2.0,5.0,52,0.00,,,0.00,517,weatherlink.com 1.10,2013-10-25 19:21:00,
2013-10-25 13:36:00,50.9,33.0,30.59,SW,219,2.0,5.0,51,0.00,,,0.00,512,weatherlink.com 1.10,2013-10-25 19:36:00,
2013-10-25 13:51:00,52.2,33.0,30.58,WSW,241,2.0,5.0,48,0.00,,,0.00,506,weatherlink.com 1.10,2013-10-25 19:51:00,
2013-10-25 14:06:00,52.8,33.0,30.58,WNW,287,3.0,4.0,47,0.00,,,0.00,497,weatherlink.com 1.10,2013-10-25 20:06:00,
2013-10-25 14:21:00,53.3,33.0,30.57,NNW,338,3.0,4.0,47,0.00,,,0.00,483,weatherlink.com 1.10,2013-10-25 20:21:00,
2013-10-25 14:36:00,54.1,34.0,30.56,NNW,339,0.0,4.0,46,0.00,,,0.00,469,weatherlink.com 1.10,2013-10-25 20:36:00,
2013-10-25 14:51:00,54.8,34.0,30.56,NNW,342,6.0,7.0,45,0.00,,,0.00,452,weatherlink.com 1.10,2013-10-25 20:51:00,
2013-10-25 15:06:00,55.3,35.0,30.56,NNW,334,1.0,6.0,46,0.00,,,0.00,432,weatherlink.com 1.10,2013-10-25 21:06:00,
2013-10-25 15:21:00,56.0,35.0,30.55,NNW,329,3.0,5.0,45,0.00,,,0.00,406,weatherlink.com 1.10,2013-10-25 21:21:00,
2013-10-25 15:36:00,56.8,35.0,30.55,NNW,329,2.0,5.0,44,0.00,,,0.00,380,weatherlink.com 1.10,2013-10-25 21:36:00,
2013-10-25 15:51:00,57.4,35.0,30.55,NNW,331,2.0,4.0,44,0.00,,,0.00,353,weatherlink.com 1.10,2013-10-25 21:51:00,
2013-10-25 16:06:00,58.0,35.0,30.55,NNW,331,0.0,5.0,42,0.00,,,0.00,325,weatherlink.com 1.10,2013-10-25 22:06:00,
2013-10-25 16:21:00,58.6,35.0,30.55,NNW,331,3.0,5.0,41,0.00,,,0.00,294,weatherlink.com 1.10,2013-10-25 22:21:00,
2013-10-25 16:36:00,58.6,34.0,30.54,NNW,331,1.0,4.0,40,0.00,,,0.00,257,weatherlink.com 1.10,2013-10-25 22:36:00,
2013-10-25 16:51:00,58.8,34.0,30.54,NNW,331,0.0,4.0,40,0.00,,,0.00,207,weatherlink.com 1.10,2013-10-25 22:51:00,
2013-10-25 17:06:00,58.7,34.0,30.54,NNW,330,0.0,4.0,40,0.00,,,0.00,160,weatherlink.com 1.10,2013-10-25 23:06:00,
2013-10-25 17:21:00,58.8,35.0,30.54,NNW,330,0.0,2.0,41,0.00,,,0.00,116,weatherlink.com 1.10,2013-10-25 23:21:00,
2013-10-25 17:36:00,58.7,35.0,30.54,NNW,330,0.0,0.0,41,0.00,,,0.00,77,weatherlink.com 1.10,2013-10-25 23:36:00,
2013-10-25 17:51:00,59.5,35.0,30.54,NNW,330,0.0,0.0,40,0.00,,,0.00,35,weatherlink.com 1.10,2013-10-25 23:51:00,
2013-10-25 18:06:00,58.5,35.0,30.54,NNW,330,0.0,0.0,41,0.00,,,0.00,14,weatherlink.com 1.10,2013-10-26 00:06:00,
2013-10-25 18:21:00,57.3,35.0,30.55,NNW,330,0.0,0.0,44,0.00,,,0.00,9,weatherlink.com 1.10,2013-10-26 00:21:00,
2013-10-25 18:36:00,56.0,35.0,30.55,NNW,330,0.0,0.0,45,0.00,,,0.00,0,weatherlink.com 1.10,2013-10-26 00:36:00,
2013-10-25 18:51:00,55.2,35.0,30.55,NNW,330,0.0,0.0,47,0.00,,,0.00,0,weatherlink.com 1.10,2013-10-26 00:51:00,
2013-10-25 19:06:00,55.1,35.0,30.55,NNW,330,0.0,0.0,47,0.00,,,0.00,0,weatherlink.com 1.10,2013-10-26 01:06:00,
2013-10-25 19:21:00,54.8,34.0,30.56,NNW,330,0.0,0.0,46,0.00,,,0.00,0,weatherlink.com 1.10,2013-10-26 01:21:00,
2013-10-25 19:36:00,54.8,34.0,30.56,NNW,330,0.0,0.0,46,0.00,,,0.00,0,weatherlink.com 1.10,2013-10-26 01:36:00,
2013-10-25 19:51:00,54.6,34.0,30.57,NNW,330,0.0,0.0,46,0.00,,,0.00,0,weatherlink.com 1.10,2013-10-26 01:51:00,
2013-10-25 20:06:00,53.7,34.0,30.57,NNW,330,0.0,0.0,47,0.00,,,0.00,0,weatherlink.com 1.10,2013-10-26 02:06:00,
2013-10-25 20:21:00,52.3,33.0,30.57,NNW,330,0.0,0.0,49,0.00,,,0.00,0,weatherlink.com 1.10,2013-10-26 02:21:00,
2013-10-25 20:36:00,52.1,33.0,30.58,NNW,330,0.0,0.0,49,0.00,,,0.00,0,weatherlink.com 1.10,2013-10-26 02:36:00,
2013-10-25 20:51:00,51.1,33.0,30.57,NNW,330,0.0,0.0,51,0.00,,,0.00,0,weatherlink.com 1.10,2013-10-26 02:51:00,
2013-10-25 21:06:00,50.7,34.0,30.58,NNW,330,0.0,0.0,53,0.00,,,0.00,0,weatherlink.com 1.10,2013-10-26 03:06:00,
2013-10-25 21:21:00,50.2,33.0,30.58,NNW,330,0.0,0.0,52,0.00,,,0.00,0,weatherlink.com 1.10,2013-10-26 03:21:00,
2013-10-25 21:36:00,49.5,33.0,30.59,NNW,330,0.0,0.0,53,0.00,,,0.00,0,weatherlink.com 1.10,2013-10-26 03:36:00,
2013-10-25 21:51:00,48.8,33.0,30.59,NNW,330,2.0,3.0,54,0.00,,,0.00,0,weatherlink.com 1.10,2013-10-26 03:51:00,
2013-10-25 22:06:00,49.4,33.0,30.59,NNW,331,0.0,3.0,53,0.00,,,0.00,0,weatherlink.com 1.10,2013-10-26 04:06:00,
2013-10-25 22:21:00,48.6,32.0,30.60,NNW,331,0.0,0.0,54,0.00,,,0.00,0,weatherlink.com 1.10,2013-10-26 04:21:00,
2013-10-25 22:36:00,46.4,32.0,30.60,NNW,331,0.0,0.0,58,0.00,,,0.00,0,weatherlink.com 1.10,2013-10-26 04:36:00,
2013-10-25 22:52:00,45.8,32.0,30.61,NNW,331,0.0,0.0,60,0.00,,,0.00,0,weatherlink.com 1.10,2013-10-26 04:52:00,
2013-10-25 23:07:00,45.9,33.0,30.61,NNW,331,0.0,1.0,60,0.00,,,0.00,0,weatherlink.com 1.10,2013-10-26 05:07:00,
2013-10-25 23:22:00,45.6,33.0,30.61,NNW,331,0.0,0.0,61,0.00,,,0.00,0,weatherlink.com 1.10,2013-10-26 05:22:00,
2013-10-25 23:37:00,45.1,33.0,30.61,NNW,331,0.0,0.0,62,0.00,,,0.00,0,weatherlink.com 1.10,2013-10-26 05:37:00,
2013-10-25 23:52:00,44.9,33.0,30.61,NNW,331,0.0,0.0,63,0.00,,,0.00,0,weatherlink.com 1.10,2013-10-26 05:52:00,